When you browse on this site, cookies collect data to enhance your experience and personalize the content and advertising you see.
Visit our Privacy Policy to learn more. By continuing to use the site, you agree to this use of cookies and data.
  • In Schweiz
  • Länderverzeichnis
  • Für 7 Tage
  • Wassertemperatur
  • Wetterkarte
  • Widgets
  • user-avatar
    Anmelden

    Stündliche Wetter Yangliuqing

    Heute, 28 Mai, Donnerstag

    Zeit Temperatur Niederschläge Wind Luftdruck Luftfeuchtigkeit
    00:00 +22°C° 0 mm 3 m/S 754 mmHg 35%
    01:00 +21°C° 0 mm 2 m/S 754 mmHg 36%
    02:00 +20°C° 0 mm 3 m/S 754 mmHg 40%
    03:00 +20°C° 0 mm 2 m/S 754 mmHg 38%
    04:00 +19°C° 0 mm 2 m/S 754 mmHg 37%
    05:00 +19°C° 0 mm 2 m/S 754 mmHg 35%
    06:00 +21°C° 0 mm 3 m/S 754 mmHg 32%
    07:00 +24°C° 0 mm 3 m/S 754 mmHg 28%
    08:00 +26°C° 0 mm 4 m/S 754 mmHg 26%
    09:00 +28°C° 0 mm 5 m/S 754 mmHg 23%
    10:00 +32°C° 0 mm 6 m/S 753 mmHg 20%
    11:00 +34°C° 0 mm 7 m/S 753 mmHg 17%
    12:00 +35°C° 0 mm 7 m/S 752 mmHg 16%
    13:00 +36°C° 0 mm 7 m/S 752 mmHg 15%
    14:00 +36°C° 0 mm 7 m/S 752 mmHg 15%
    15:00 +38°C° 0 mm 7 m/S 751 mmHg 14%
    16:00 +38°C° 0 mm 6 m/S 751 mmHg 13%
    17:00 +39°C° 0 mm 5 m/S 751 mmHg 12%
    18:00 +36°C° 0 mm 4 m/S 751 mmHg 15%
    19:00 +34°C° 0 mm 4 m/S 751 mmHg 17%
    20:00 +32°C° 0 mm 4 m/S 751 mmHg 20%
    21:00 +30°C° 0 mm 4 m/S 751 mmHg 22%
    22:00 +28°C° 0 mm 4 m/S 752 mmHg 25%
    23:00 +27°C° 0 mm 4 m/S 752 mmHg 28%

    Morgen, 29 Mai, Freitag

    Zeit Temperatur Niederschläge Wind Luftdruck Luftfeuchtigkeit
    00:00 +26°C° 0 mm 4 m/S 752 mmHg 36%
    01:00 +23°C° 0 mm 4 m/S 752 mmHg 44%
    02:00 +21°C° 0 mm 4 m/S 752 mmHg 53%
    03:00 +21°C° 0 mm 4 m/S 752 mmHg 55%
    04:00 +20°C° 0 mm 3 m/S 752 mmHg 57%
    05:00 +20°C° 0 mm 3 m/S 752 mmHg 60%
    06:00 +22°C° 0 mm 3 m/S 753 mmHg 54%
    07:00 +24°C° 0 mm 3 m/S 753 mmHg 49%
    08:00 +26°C° 0 mm 3 m/S 753 mmHg 44%
    09:00 +29°C° 0 mm 2 m/S 753 mmHg 36%
    10:00 +31°C° 0 mm 2 m/S 753 mmHg 28%
    11:00 +34°C° 0 mm 1 m/S 753 mmHg 21%
    12:00 +36°C° 0 mm 2 m/S 753 mmHg 18%
    13:00 +38°C° 0 mm 3 m/S 753 mmHg 15%
    14:00 +40°C° 0 mm 3 m/S 752 mmHg 12%
    15:00 +40°C° 0 mm 4 m/S 752 mmHg 13%
    16:00 +40°C° 0 mm 5 m/S 752 mmHg 14%
    17:00 +40°C° 0 mm 6 m/S 752 mmHg 15%
    18:00 +37°C° 0.1 mm 8 m/S 752 mmHg 22%
    19:00 +33°C° 0.1 mm 9 m/S 753 mmHg 29%
    20:00 +29°C° 0.1 mm 11 m/S 753 mmHg 37%
    21:00 +29°C° 0.2 mm 10 m/S 754 mmHg 39%
    22:00 +28°C° 0.2 mm 10 m/S 755 mmHg 41%
    23:00 +28°C° 0.2 mm 9 m/S 756 mmHg 43%

    übermorgen, 30 Mai, Samstag

    Zeit Temperatur Niederschläge Wind Luftdruck Luftfeuchtigkeit
    00:00 +28°C° 0 mm 8 m/S 756 mmHg 43%
    01:00 +28°C° 0 mm 7 m/S 756 mmHg 42%
    02:00 +27°C° 0 mm 6 m/S 756 mmHg 41%
    03:00 +26°C° 0 mm 6 m/S 756 mmHg 43%
    04:00 +25°C° 0 mm 5 m/S 756 mmHg 45%
    05:00 +25°C° 0 mm 4 m/S 756 mmHg 48%
    06:00 +26°C° 0 mm 4 m/S 756 mmHg 45%
    07:00 +27°C° 0 mm 5 m/S 757 mmHg 42%
    08:00 +28°C° 0 mm 5 m/S 757 mmHg 40%
    09:00 +30°C° 0 mm 6 m/S 757 mmHg 35%
    10:00 +32°C° 0 mm 6 m/S 757 mmHg 31%
    11:00 +33°C° 0 mm 7 m/S 757 mmHg 26%
    12:00 +34°C° 0 mm 8 m/S 756 mmHg 26%
    13:00 +34°C° 0 mm 9 m/S 755 mmHg 26%
    14:00 +34°C° 0 mm 9 m/S 754 mmHg 26%
    15:00 +32°C° 0 mm 9 m/S 756 mmHg 29%
    16:00 +31°C° 0 mm 9 m/S 756 mmHg 31%
    17:00 +29°C° 0 mm 9 m/S 756 mmHg 34%
    18:00 +27°C° 0 mm 8 m/S 757 mmHg 41%
    19:00 +26°C° 0 mm 7 m/S 757 mmHg 49%
    20:00 +23°C° 0 mm 6 m/S 757 mmHg 57%
    21:00 +23°C° 0 mm 5 m/S 757 mmHg 58%
    22:00 +22°C° 0 mm 5 m/S 757 mmHg 60%
    23:00 +22°C° 0 mm 4 m/S 757 mmHg 62%

    31 Mai, Sonntag

    Zeit Temperatur Niederschläge Wind Luftdruck Luftfeuchtigkeit
    00:00 +21°C° 0 mm 4 m/S 757 mmHg 64%
    01:00 +21°C° 0 mm 3 m/S 756 mmHg 66%
    02:00 +21°C° 0 mm 3 m/S 756 mmHg 68%
    03:00 +20°C° 0 mm 3 m/S 756 mmHg 70%
    04:00 +20°C° 0 mm 3 m/S 756 mmHg 73%
    05:00 +19°C° 0 mm 3 m/S 756 mmHg 75%
    06:00 +20°C° 0.2 mm 4 m/S 755 mmHg 74%
    07:00 +21°C° 0.2 mm 4 m/S 755 mmHg 72%
    08:00 +21°C° 0.2 mm 4 m/S 755 mmHg 70%
    09:00 +22°C° 1 mm 5 m/S 754 mmHg 70%
    10:00 +23°C° 1 mm 5 m/S 754 mmHg 69%
    11:00 +23°C° 1 mm 6 m/S 753 mmHg 68%
    12:00 +26°C° 0.1 mm 6 m/S 753 mmHg 54%
    13:00 +29°C° 0.1 mm 7 m/S 752 mmHg 40%
    14:00 +32°C° 0.1 mm 7 m/S 752 mmHg 25%
    15:00 +32°C° 0 mm 7 m/S 752 mmHg 22%
    16:00 +32°C° 0 mm 7 m/S 752 mmHg 20%
    17:00 +32°C° 0 mm 7 m/S 752 mmHg 17%
    18:00 +29°C° 0 mm 6 m/S 752 mmHg 18%
    19:00 +28°C° 0 mm 5 m/S 753 mmHg 18%
    20:00 +26°C° 0 mm 4 m/S 753 mmHg 19%
    21:00 +25°C° 0 mm 3 m/S 753 mmHg 20%
    22:00 +25°C° 0 mm 2 m/S 754 mmHg 21%
    23:00 +24°C° 0 mm 1 m/S 754 mmHg 22%

    1 Juni, Montag

    Zeit Temperatur Niederschläge Wind Luftdruck Luftfeuchtigkeit
    00:00 +23°C° 0 mm 1 m/S 754 mmHg 22%
    01:00 +23°C° 0 mm 1 m/S 754 mmHg 22%
    02:00 +21°C° 0 mm 0 m/S 754 mmHg 23%
    03:00 +22°C° 0 mm 1 m/S 754 mmHg 24%
    04:00 +21°C° 0 mm 2 m/S 754 mmHg 25%
    05:00 +20°C° 0 mm 2 m/S 754 mmHg 26%
    06:00 +22°C° 0 mm 3 m/S 754 mmHg 25%
    07:00 +25°C° 0 mm 3 m/S 754 mmHg 24%
    08:00 +27°C° 0 mm 3 m/S 754 mmHg 23%
    09:00 +29°C° 0 mm 4 m/S 754 mmHg 20%
    10:00 +32°C° 0 mm 5 m/S 753 mmHg 17%
    11:00 +34°C° 0 mm 6 m/S 753 mmHg 14%
    12:00 +35°C° 0 mm 6 m/S 752 mmHg 12%
    13:00 +38°C° 0 mm 7 m/S 751 mmHg 10%
    14:00 +39°C° 0 mm 7 m/S 750 mmHg 8%
    15:00 +40°C° 0 mm 7 m/S 749 mmHg 8%
    16:00 +40°C° 0 mm 7 m/S 748 mmHg 8%
    17:00 +40°C° 0 mm 8 m/S 747 mmHg 8%
    18:00 +38°C° 0 mm 6 m/S 747 mmHg 9%
    19:00 +35°C° 0 mm 5 m/S 748 mmHg 11%
    20:00 +33°C° 0 mm 4 m/S 748 mmHg 12%
    21:00 +31°C° 0 mm 3 m/S 748 mmHg 13%
    22:00 +30°C° 0 mm 3 m/S 749 mmHg 14%
    23:00 +28°C° 0 mm 3 m/S 750 mmHg 15%

    2 Juni, Dienstag

    Zeit Temperatur Niederschläge Wind Luftdruck Luftfeuchtigkeit
    00:00 +27°C° 0 mm 2 m/S 750 mmHg 15%
    01:00 +27°C° 0 mm 1 m/S 750 mmHg 16%
    02:00 +24°C° 0 mm 0 m/S 750 mmHg 17%
    03:00 +25°C° 0 mm 1 m/S 750 mmHg 18%
    04:00 +25°C° 0 mm 1 m/S 751 mmHg 19%
    05:00 +24°C° 0 mm 2 m/S 751 mmHg 20%
    06:00 +26°C° 0 mm 1 m/S 751 mmHg 19%
    07:00 +28°C° 0 mm 1 m/S 751 mmHg 18%
    08:00 +30°C° 0 mm 1 m/S 752 mmHg 16%
    09:00 +32°C° 0 mm 2 m/S 752 mmHg 15%
    10:00 +35°C° 0 mm 3 m/S 751 mmHg 13%
    11:00 +37°C° 0 mm 3 m/S 751 mmHg 11%
    12:00 +38°C° 0 mm 4 m/S 750 mmHg 10%
    13:00 +40°C° 0 mm 4 m/S 750 mmHg 9%
    14:00 +41°C° 0 mm 4 m/S 749 mmHg 8%
    15:00 +41°C° 0 mm 4 m/S 748 mmHg 8%
    16:00 +41°C° 0 mm 4 m/S 748 mmHg 8%
    17:00 +42°C° 0 mm 5 m/S 747 mmHg 8%
    18:00 +40°C° 0 mm 5 m/S 747 mmHg 9%
    19:00 +37°C° 0 mm 5 m/S 747 mmHg 11%
    20:00 +35°C° 0 mm 5 m/S 746 mmHg 12%
    21:00 +35°C° 0 mm 6 m/S 746 mmHg 12%
    22:00 +34°C° 0 mm 7 m/S 746 mmHg 11%
    23:00 +34°C° 0 mm 7 m/S 746 mmHg 11%
    Mehr zeigen